Hourly Data Report for October 17, 2018

MUSKOKA
ONTARIO
Current Station Operator: NAVCAN

44°58'29.000" N
79°18'12.000" W
281.90 m
6115529
71532
YQA

Download Data

Hourly Data (October 2018)
Hourly Data Report for October 17, 2018
TIME
LST
Temp Definition
°C
Dew Point Definition
°C
Rel Hum Definition
%
Precip. Amount Definition
mm

Wind Dir Definition
10's deg

Wind Spd Definition
km/h
Visibility Definition
km
Stn Press Definition
kPa
Hmdx Definition


Wind Chill Definition


Weather Definition


00:00 5.6 4.6 93 1.8 21 11 16.1 97.52     Rain
01:00 6.1 4.9 92 0.0 29 11 16.1 97.52     LegendNANA
02:00 5.2 3.1 86 0.2 29 9 16.1 97.53     LegendNANA
03:00 4.2 2.4 88 0.5 30 9 16.1 97.54     Rain
04:00 4.1 3.1 93 0.0 24 8 16.1 97.55     Rain
05:00 4.3 3.0 91 0.2 27 8 16.1 97.56     LegendNANA
06:00 3.7 1.2 84 0.0 30 17 16.1 97.59     Rain
07:00 3.9 0.6 79 0.0 29 17 16.1 97.61     Rain
08:00 4.2 -1.2 68 0.0 31 24 16.1 97.66     LegendNANA
09:00 4.2 -0.8 70 0.0 32 26 16.1 97.72     LegendNANA
10:00 4.4 -2.1 63 0.0 29 18 16.1 97.78     LegendNANA
11:00 3.7 -1.0 71 0.0 27 24 16.1 97.83     Rain
12:00 5.9 -5.1 45 0.0 29 24 16.1 97.85     LegendNANA
13:00 5.6 -5.4 45 0.0 28 24 16.1 97.90     LegendNANA
14:00 5.0 -6.1 45 0.0 31 22 16.1 97.97     LegendNANA
15:00 5.6 -5.3 46 0.0 29 22 16.1 98.04     LegendNANA
16:00 4.6 -7.5 41 0.0 30 35 16.1 98.13     LegendNANA
17:00 3.6 -6.9 46 0.0 30 21 16.1 98.20     LegendNANA
18:00 3.0 -5.7 53 0.0 30 22 16.1 98.35     LegendNANA
19:00 2.4 -10.6 38 0.0 32 28 16.1 98.48     LegendNANA
20:00 1.1 -9.5 45 0.0 33 21 16.1 98.58     LegendNANA
21:00 0.0 -8.8 52 0.0 32 18 16.1 98.70   -5 LegendNANA
22:00 -0.9 -8.4 57 0.0 30 15 16.1 98.80   -6 LegendNANA
23:00 -1.4 -7.8 62 0.0 30 17 16.1 98.91   -7 LegendNANA

Notes on Data Quality.

Legend

  • E = Estimated
  • M = Missing
  • NA = Not Available*
  • [empty] = Indicates an unobserved value
Date modified: